Time,TemperatureF,DewpointF,PressureIn,WindDirection,WindDirectionDegrees,WindSpeedMPH,WindSpeedGustMPH,Humidity,HourlyPrecipIn,Conditions,Clouds,dailyrainin,SoftwareType,DateUTC
2013-05-18 00:01:00,64.2,60.0,29.90,NW,326,1.0,4.0,86,0.00,,,0.00,WUHU216DAVISVP2,2013-05-18 05:01:00,
2013-05-18 00:06:00,64.1,60.2,29.90,NW,326,2.0,4.0,87,0.00,,,0.00,WUHU216DAVISVP2,2013-05-18 05:06:00,
2013-05-18 00:11:00,64.1,60.2,29.90,NW,326,1.0,4.0,87,0.00,,,0.00,WUHU216DAVISVP2,2013-05-18 05:11:00,
2013-05-18 00:16:00,64.1,60.2,29.90,NW,326,1.0,4.0,87,0.00,,,0.00,WUHU216DAVISVP2,2013-05-18 05:16:00,
2013-05-18 00:21:00,64.1,60.2,29.90,NW,326,0.0,4.0,87,0.00,,,0.00,WUHU216DAVISVP2,2013-05-18 05:21:00,
2013-05-18 00:26:00,64.1,60.2,29.90,NW,326,3.0,4.0,87,0.00,,,0.00,WUHU216DAVISVP2,2013-05-18 05:26:00,
2013-05-18 00:31:00,64.1,60.2,29.90,NW,326,0.0,5.0,87,0.00,,,0.00,WUHU216DAVISVP2,2013-05-18 05:31:00,
2013-05-18 00:36:00,64.1,60.2,29.90,NW,326,1.0,5.0,87,0.00,,,0.00,WUHU216DAVISVP2,2013-05-18 05:36:00,
2013-05-18 00:41:00,64.0,60.1,29.89,NW,326,0.0,5.0,87,0.00,,,0.00,WUHU216DAVISVP2,2013-05-18 05:41:00,
2013-05-18 00:46:00,64.0,60.1,29.90,NW,326,0.0,5.0,87,0.00,,,0.00,WUHU216DAVISVP2,2013-05-18 05:46:00,
2013-05-18 00:51:00,63.9,60.0,29.89,NW,326,1.0,3.0,87,0.00,,,0.00,WUHU216DAVISVP2,2013-05-18 05:51:00,
2013-05-18 00:56:00,63.8,60.2,29.89,NW,326,0.0,3.0,88,0.00,,,0.00,WUHU216DAVISVP2,2013-05-18 05:56:00,
2013-05-18 01:01:00,63.7,60.1,29.89,NW,326,0.0,3.0,88,0.00,,,0.00,WUHU216DAVISVP2,2013-05-18 06:01:00,
2013-05-18 01:06:00,63.6,60.0,29.89,NW,326,0.0,3.0,88,0.00,,,0.00,WUHU216DAVISVP2,2013-05-18 06:06:00,
2013-05-18 01:11:00,63.5,59.9,29.89,NW,326,0.0,3.0,88,0.00,,,0.00,WUHU216DAVISVP2,2013-05-18 06:11:00,
2013-05-18 01:16:00,63.4,60.1,29.89,NW,326,0.0,2.0,89,0.00,,,0.00,WUHU216DAVISVP2,2013-05-18 06:16:00,
2013-05-18 01:21:00,63.2,59.9,29.89,NW,326,0.0,4.0,89,0.00,,,0.00,WUHU216DAVISVP2,2013-05-18 06:21:00,
2013-05-18 01:26:00,63.1,59.8,29.89,NW,326,0.0,4.0,89,0.00,,,0.00,WUHU216DAVISVP2,2013-05-18 06:26:00,
2013-05-18 01:31:00,63.1,59.8,29.89,NW,326,2.0,4.0,89,0.00,,,0.00,WUHU216DAVISVP2,2013-05-18 06:31:00,
2013-05-18 01:36:00,63.1,60.1,29.88,NW,326,1.0,4.0,90,0.00,,,0.00,WUHU216DAVISVP2,2013-05-18 06:36:00,
2013-05-18 01:41:00,63.1,60.1,29.88,NW,326,1.0,5.0,90,0.00,,,0.00,WUHU216DAVISVP2,2013-05-18 06:41:00,
2013-05-18 01:46:00,63.1,60.1,29.88,NW,326,2.0,5.0,90,0.00,,,0.00,WUHU216DAVISVP2,2013-05-18 06:46:00,
2013-05-18 01:51:00,63.1,60.1,29.88,NW,326,2.0,5.0,90,0.00,,,0.00,WUHU216DAVISVP2,2013-05-18 06:51:00,
2013-05-18 01:56:00,63.1,60.1,29.88,NW,326,1.0,5.0,90,0.00,,,0.00,WUHU216DAVISVP2,2013-05-18 06:56:00,
2013-05-18 02:01:00,63.2,60.1,29.88,NW,326,3.0,5.0,90,0.00,,,0.00,WUHU216DAVISVP2,2013-05-18 07:01:00,
2013-05-18 02:06:00,63.1,60.1,29.88,NW,326,1.0,5.0,90,0.00,,,0.00,WUHU216DAVISVP2,2013-05-18 07:06:00,
2013-05-18 02:11:00,63.1,60.1,29.88,NW,326,1.0,5.0,90,0.00,,,0.00,WUHU216DAVISVP2,2013-05-18 07:11:00,
2013-05-18 02:16:00,63.1,60.4,29.88,NW,326,2.0,5.0,91,0.00,,,0.00,WUHU216DAVISVP2,2013-05-18 07:16:00,
2013-05-18 02:21:00,63.1,60.4,29.87,NW,326,2.0,5.0,91,0.00,,,0.00,WUHU216DAVISVP2,2013-05-18 07:21:00,
2013-05-18 02:26:00,63.1,60.4,29.87,NW,326,2.0,5.0,91,0.00,,,0.00,WUHU216DAVISVP2,2013-05-18 07:26:00,
2013-05-18 02:31:00,63.2,60.5,29.87,NW,321,3.0,7.0,91,0.00,,,0.00,WUHU216DAVISVP2,2013-05-18 07:31:00,
2013-05-18 02:36:00,63.3,60.6,29.87,NW,320,2.0,7.0,91,0.00,,,0.00,WUHU216DAVISVP2,2013-05-18 07:36:00,
2013-05-18 02:41:00,63.3,60.6,29.86,NW,320,6.0,7.0,91,0.00,,,0.00,WUHU216DAVISVP2,2013-05-18 07:41:00,
2013-05-18 02:46:00,63.4,60.7,29.86,NW,315,4.0,8.0,91,0.00,,,0.00,WUHU216DAVISVP2,2013-05-18 07:46:00,
2013-05-18 02:51:00,63.5,60.8,29.87,NW,315,1.0,8.0,91,0.00,,,0.00,WUHU216DAVISVP2,2013-05-18 07:51:00,
2013-05-18 02:56:00,63.5,60.8,29.87,NW,315,5.0,8.0,91,0.00,,,0.00,WUHU216DAVISVP2,2013-05-18 07:56:00,
2013-05-18 03:01:00,63.5,61.1,29.86,NW,314,2.0,8.0,92,0.00,,,0.00,WUHU216DAVISVP2,2013-05-18 08:01:00,
2013-05-18 03:06:00,63.4,61.0,29.86,NW,314,1.0,7.0,92,0.00,,,0.00,WUHU216DAVISVP2,2013-05-18 08:06:00,
2013-05-18 03:11:00,63.3,60.9,29.86,NW,314,1.0,7.0,92,0.00,,,0.00,WUHU216DAVISVP2,2013-05-18 08:11:00,
2013-05-18 03:16:00,63.3,60.9,29.86,NW,315,2.0,6.0,92,0.00,,,0.00,WUHU216DAVISVP2,2013-05-18 08:16:00,
2013-05-18 03:21:00,63.2,60.8,29.86,NW,315,3.0,5.0,92,0.00,,,0.00,WUHU216DAVISVP2,2013-05-18 08:21:00,
2013-05-18 03:26:00,63.1,60.7,29.86,NW,315,2.0,5.0,92,0.00,,,0.00,WUHU216DAVISVP2,2013-05-18 08:26:00,
2013-05-18 03:31:00,63.0,60.6,29.86,NW,315,4.0,5.0,92,0.00,,,0.00,WUHU216DAVISVP2,2013-05-18 08:31:00,
2013-05-18 03:36:00,62.8,60.7,29.86,NW,315,3.0,5.0,93,0.00,,,0.00,WUHU216DAVISVP2,2013-05-18 08:36:00,
2013-05-18 03:41:00,62.8,60.7,29.86,NW,315,2.0,5.0,93,0.00,,,0.00,WUHU216DAVISVP2,2013-05-18 08:41:00,
2013-05-18 03:46:00,62.7,60.6,29.86,NW,314,2.0,5.0,93,0.00,,,0.00,WUHU216DAVISVP2,2013-05-18 08:46:00,
2013-05-18 03:51:00,62.6,60.5,29.86,NW,314,5.0,5.0,93,0.00,,,0.00,WUHU216DAVISVP2,2013-05-18 08:51:00,
2013-05-18 03:56:00,62.6,60.5,29.85,NW,314,3.0,6.0,93,0.00,,,0.00,WUHU216DAVISVP2,2013-05-18 08:56:00,
2013-05-18 04:01:00,62.5,60.5,29.85,NW,314,2.0,6.0,93,0.00,,,0.00,WUHU216DAVISVP2,2013-05-18 09:01:00,
2013-05-18 04:06:00,62.6,60.8,29.86,NW,314,3.0,6.0,94,0.00,,,0.00,WUHU216DAVISVP2,2013-05-18 09:06:00,
2013-05-18 04:11:00,62.6,60.8,29.86,NW,314,3.0,6.0,94,0.00,,,0.00,WUHU216DAVISVP2,2013-05-18 09:11:00,
2013-05-18 04:16:00,62.6,60.8,29.86,NW,314,2.0,6.0,94,0.00,,,0.00,WUHU216DAVISVP2,2013-05-18 09:16:00,
2013-05-18 04:21:00,62.6,60.9,29.86,NW,314,0.0,5.0,94,0.00,,,0.00,WUHU216DAVISVP2,2013-05-18 09:21:00,
2013-05-18 04:26:00,62.6,60.8,29.86,NW,314,2.0,5.0,94,0.00,,,0.00,WUHU216DAVISVP2,2013-05-18 09:26:00,
2013-05-18 04:31:00,62.6,60.8,29.87,NW,314,2.0,5.0,94,0.00,,,0.00,WUHU216DAVISVP2,2013-05-18 09:31:00,
2013-05-18 04:36:00,62.6,60.8,29.87,NW,314,0.0,5.0,94,0.00,,,0.00,WUHU216DAVISVP2,2013-05-18 09:36:00,
2013-05-18 04:41:00,62.5,60.8,29.87,NW,314,2.0,4.0,94,0.00,,,0.00,WUHU216DAVISVP2,2013-05-18 09:41:00,
2013-05-18 04:46:00,62.6,60.8,29.87,NW,314,0.0,3.0,94,0.00,,,0.00,WUHU216DAVISVP2,2013-05-18 09:46:00,
2013-05-18 04:51:00,62.6,60.8,29.87,NW,314,0.0,3.0,94,0.00,,,0.00,WUHU216DAVISVP2,2013-05-18 09:51:00,
2013-05-18 04:56:00,62.5,60.7,29.87,NW,314,0.0,3.0,94,0.00,,,0.00,WUHU216DAVISVP2,2013-05-18 09:56:00,
2013-05-18 05:01:00,62.7,60.9,29.87,NW,314,2.0,3.0,94,0.00,,,0.00,WUHU216DAVISVP2,2013-05-18 10:01:00,
2013-05-18 05:06:00,62.7,61.2,29.88,NW,314,0.0,3.0,95,0.00,,,0.00,WUHU216DAVISVP2,2013-05-18 10:06:00,
2013-05-18 05:11:00,62.7,61.2,29.88,NW,314,1.0,3.0,95,0.00,,,0.00,WUHU216DAVISVP2,2013-05-18 10:11:00,
2013-05-18 05:16:00,62.8,61.3,29.88,NW,314,1.0,3.0,95,0.00,,,0.00,WUHU216DAVISVP2,2013-05-18 10:16:00,
2013-05-18 05:21:00,63.0,61.5,29.88,NW,314,0.0,3.0,95,0.00,,,0.00,WUHU216DAVISVP2,2013-05-18 10:21:00,
2013-05-18 05:26:00,63.0,61.5,29.88,NW,314,2.0,3.0,95,0.00,,,0.00,WUHU216DAVISVP2,2013-05-18 10:26:00,
2013-05-18 05:32:00,63.0,61.6,29.88,NW,314,0.0,3.0,95,0.00,,,0.00,WUHU216DAVISVP2,2013-05-18 10:32:00,
2013-05-18 05:37:00,63.1,61.6,29.88,NW,314,0.0,3.0,95,0.00,,,0.00,WUHU216DAVISVP2,2013-05-18 10:37:00,
2013-05-18 05:42:00,63.1,61.6,29.88,NW,314,0.0,3.0,95,0.00,,,0.00,WUHU216DAVISVP2,2013-05-18 10:42:00,
2013-05-18 05:47:00,63.1,61.7,29.88,NW,314,1.0,3.0,95,0.00,,,0.00,WUHU216DAVISVP2,2013-05-18 10:47:00,
2013-05-18 05:52:00,63.3,61.8,29.88,NW,314,0.0,3.0,95,0.00,,,0.00,WUHU216DAVISVP2,2013-05-18 10:52:00,
2013-05-18 05:57:00,63.4,61.9,29.88,NW,314,0.0,3.0,95,0.00,,,0.00,WUHU216DAVISVP2,2013-05-18 10:57:00,
2013-05-18 06:02:00,63.4,62.0,29.89,NW,314,2.0,4.0,95,0.00,,,0.00,WUHU216DAVISVP2,2013-05-18 11:02:00,
2013-05-18 06:07:00,63.4,61.9,29.89,NW,314,0.0,4.0,95,0.00,,,0.00,WUHU216DAVISVP2,2013-05-18 11:07:00,
2013-05-18 06:12:00,63.3,61.8,29.89,NW,314,2.0,4.0,95,0.00,,,0.00,WUHU216DAVISVP2,2013-05-18 11:12:00,
2013-05-18 06:17:00,63.2,61.8,29.89,NW,314,4.0,5.0,95,0.00,,,0.00,WUHU216DAVISVP2,2013-05-18 11:17:00,
2013-05-18 06:22:00,63.2,61.7,29.89,NW,314,5.0,5.0,95,0.00,,,0.00,WUHU216DAVISVP2,2013-05-18 11:22:00,
2013-05-18 06:27:00,63.3,61.8,29.89,NW,314,3.0,5.0,95,0.00,,,0.00,WUHU216DAVISVP2,2013-05-18 11:27:00,
2013-05-18 06:32:00,63.4,61.9,29.89,NW,314,2.0,6.0,95,0.00,,,0.00,WUHU216DAVISVP2,2013-05-18 11:32:00,
2013-05-18 06:37:00,63.4,61.9,29.90,NW,314,2.0,6.0,95,0.00,,,0.00,WUHU216DAVISVP2,2013-05-18 11:37:00,
2013-05-18 06:42:00,63.5,62.0,29.90,NW,314,3.0,6.0,95,0.00,,,0.00,WUHU216DAVISVP2,2013-05-18 11:42:00,
2013-05-18 06:47:00,63.6,62.1,29.89,NW,314,4.0,6.0,95,0.00,,,0.00,WUHU216DAVISVP2,2013-05-18 11:47:00,
2013-05-18 06:52:00,63.7,62.2,29.89,NW,314,3.0,6.0,95,0.00,,,0.00,WUHU216DAVISVP2,2013-05-18 11:52:00,
2013-05-18 06:57:00,63.8,62.6,29.89,NW,311,5.0,7.0,96,0.00,,,0.00,WUHU216DAVISVP2,2013-05-18 11:57:00,
2013-05-18 07:02:00,64.0,62.8,29.89,NW,310,4.0,7.0,96,0.00,,,0.00,WUHU216DAVISVP2,2013-05-18 12:02:00,
2013-05-18 07:07:00,64.2,63.0,29.89,NW,310,2.0,8.0,96,0.00,,,0.00,WUHU216DAVISVP2,2013-05-18 12:07:00,
2013-05-18 07:12:00,64.4,63.2,29.89,NW,306,2.0,8.0,96,0.00,,,0.00,WUHU216DAVISVP2,2013-05-18 12:12:00,
2013-05-18 07:17:00,64.7,63.5,29.89,WNW,296,7.0,9.0,96,0.00,,,0.00,WUHU216DAVISVP2,2013-05-18 12:17:00,
2013-05-18 07:22:00,64.9,63.7,29.89,NW,318,1.0,9.0,96,0.00,,,0.00,WUHU216DAVISVP2,2013-05-18 12:22:00,
2013-05-18 07:27:00,65.1,63.6,29.89,NW,323,3.0,9.0,95,0.00,,,0.00,WUHU216DAVISVP2,2013-05-18 12:27:00,
2013-05-18 07:32:00,65.3,63.8,29.90,NW,313,1.0,9.0,95,0.00,,,0.00,WUHU216DAVISVP2,2013-05-18 12:32:00,
2013-05-18 07:37:00,65.6,64.1,29.90,NW,326,5.0,8.0,95,0.00,,,0.00,WUHU216DAVISVP2,2013-05-18 12:37:00,
2013-05-18 07:42:00,65.7,64.2,29.90,NW,326,1.0,8.0,95,0.00,,,0.00,WUHU216DAVISVP2,2013-05-18 12:42:00,
2013-05-18 07:47:00,65.9,64.4,29.90,NW,326,3.0,8.0,95,0.00,,,0.00,WUHU216DAVISVP2,2013-05-18 12:47:00,
2013-05-18 07:52:00,66.0,64.5,29.90,NW,317,1.0,7.0,95,0.00,,,0.00,WUHU216DAVISVP2,2013-05-18 12:52:00,
2013-05-18 07:57:00,66.3,64.8,29.90,NW,317,2.0,7.0,95,0.00,,,0.00,WUHU216DAVISVP2,2013-05-18 12:57:00,
2013-05-18 08:02:00,66.4,64.9,29.90,NW,318,5.0,7.0,95,0.00,,,0.00,WUHU216DAVISVP2,2013-05-18 13:02:00,
2013-05-18 08:07:00,66.6,65.1,29.90,NW,318,2.0,7.0,95,0.00,,,0.00,WUHU216DAVISVP2,2013-05-18 13:07:00,
2013-05-18 08:12:00,66.7,65.2,29.89,NW,322,1.0,8.0,95,0.00,,,0.00,WUHU216DAVISVP2,2013-05-18 13:12:00,
2013-05-18 08:17:00,67.0,65.1,29.89,NW,324,7.0,10.0,94,0.00,,,0.00,WUHU216DAVISVP2,2013-05-18 13:17:00,
2013-05-18 08:22:00,67.2,65.4,29.90,NNW,344,10.0,10.0,94,0.00,,,0.00,WUHU216DAVISVP2,2013-05-18 13:22:00,
2013-05-18 08:27:00,67.4,65.2,29.89,NNW,331,5.0,12.0,93,0.00,,,0.00,WUHU216DAVISVP2,2013-05-18 13:27:00,
2013-05-18 08:32:00,67.7,65.6,29.89,NW,326,2.0,12.0,93,0.00,,,0.00,WUHU216DAVISVP2,2013-05-18 13:32:00,
2013-05-18 08:37:00,67.8,65.4,29.89,NNW,335,8.0,13.0,92,0.00,,,0.00,WUHU216DAVISVP2,2013-05-18 13:37:00,
2013-05-18 08:42:00,67.9,65.4,29.90,NW,316,5.0,13.0,92,0.00,,,0.00,WUHU216DAVISVP2,2013-05-18 13:42:00,
2013-05-18 08:47:00,67.8,65.1,29.90,North,354,6.0,13.0,91,0.00,,,0.00,WUHU216DAVISVP2,2013-05-18 13:47:00,
2013-05-18 08:52:00,67.7,64.9,29.90,NNW,339,8.0,13.0,91,0.00,,,0.00,WUHU216DAVISVP2,2013-05-18 13:52:00,
2013-05-18 08:57:00,67.6,64.9,29.90,NNW,337,7.0,13.0,91,0.00,,,0.00,WUHU216DAVISVP2,2013-05-18 13:57:00,
2013-05-18 09:02:00,67.4,64.6,29.89,NNW,332,10.0,16.0,91,0.00,,,0.00,WUHU216DAVISVP2,2013-05-18 14:02:00,
2013-05-18 09:07:00,67.1,64.7,29.89,NNW,339,8.0,16.0,92,0.00,,,0.00,WUHU216DAVISVP2,2013-05-18 14:07:00,
2013-05-18 09:12:00,67.1,64.7,29.88,NNW,336,13.0,16.0,92,0.00,,,0.00,WUHU216DAVISVP2,2013-05-18 14:12:00,
2013-05-18 09:17:00,66.9,64.5,29.89,NNW,337,7.0,20.0,92,0.00,,,0.00,WUHU216DAVISVP2,2013-05-18 14:17:00,
2013-05-18 09:22:00,67.0,64.6,29.89,WNW,303,6.0,20.0,92,0.00,,,0.00,WUHU216DAVISVP2,2013-05-18 14:22:00,
2013-05-18 09:27:00,67.1,64.6,29.89,WNW,302,1.0,20.0,92,0.00,,,0.00,WUHU216DAVISVP2,2013-05-18 14:27:00,
2013-05-18 09:32:00,67.1,64.7,29.89,North,7,2.0,20.0,92,0.00,,,0.00,WUHU216DAVISVP2,2013-05-18 14:32:00,
2013-05-18 09:37:00,67.1,64.6,29.89,NNW,339,1.0,13.0,92,0.00,,,0.00,WUHU216DAVISVP2,2013-05-18 14:37:00,
2013-05-18 09:42:00,67.0,64.3,29.89,NW,323,5.0,13.0,91,0.00,,,0.00,WUHU216DAVISVP2,2013-05-18 14:42:00,
2013-05-18 09:47:00,67.0,64.3,29.89,NW,320,7.0,12.0,91,0.00,,,0.00,WUHU216DAVISVP2,2013-05-18 14:47:00,
2013-05-18 09:52:00,67.1,64.3,29.89,NW,319,11.0,12.0,91,0.00,,,0.00,WUHU216DAVISVP2,2013-05-18 14:52:00,
2013-05-18 09:57:00,67.0,64.3,29.88,NW,317,7.0,12.0,91,0.00,,,0.00,WUHU216DAVISVP2,2013-05-18 14:57:00,
2013-05-18 10:02:00,67.0,64.3,29.89,NNW,339,1.0,12.0,91,0.00,,,0.00,WUHU216DAVISVP2,2013-05-18 15:02:00,
2013-05-18 10:07:00,67.0,63.9,29.89,NNW,343,5.0,11.0,90,0.00,,,0.00,WUHU216DAVISVP2,2013-05-18 15:07:00,
2013-05-18 10:12:00,67.0,64.2,29.88,NW,322,3.0,11.0,91,0.00,,,0.00,WUHU216DAVISVP2,2013-05-18 15:12:00,
2013-05-18 10:17:00,67.2,64.1,29.88,NNW,334,6.0,11.0,90,0.00,,,0.00,WUHU216DAVISVP2,2013-05-18 15:17:00,
2013-05-18 10:22:00,67.2,64.2,29.88,NNW,345,7.0,11.0,90,0.00,,,0.00,WUHU216DAVISVP2,2013-05-18 15:22:00,
2013-05-18 10:27:00,67.2,64.2,29.88,NW,322,10.0,13.0,90,0.00,,,0.00,WUHU216DAVISVP2,2013-05-18 15:27:00,
2013-05-18 10:32:00,67.1,64.1,29.88,NW,315,4.0,13.0,90,0.00,,,0.00,WUHU216DAVISVP2,2013-05-18 15:32:00,
2013-05-18 10:37:00,67.2,63.8,29.88,NW,311,6.0,13.0,89,0.00,,,0.00,WUHU216DAVISVP2,2013-05-18 15:37:00,
2013-05-18 10:42:00,67.5,64.1,29.88,NNW,341,4.0,13.0,89,0.00,,,0.00,WUHU216DAVISVP2,2013-05-18 15:42:00,
2013-05-18 10:47:00,67.8,64.4,29.88,NW,310,10.0,12.0,89,0.00,,,0.00,WUHU216DAVISVP2,2013-05-18 15:47:00,
2013-05-18 10:52:00,68.0,64.3,29.88,NNW,340,6.0,16.0,88,0.00,,,0.00,WUHU216DAVISVP2,2013-05-18 15:52:00,
2013-05-18 10:57:00,68.3,64.6,29.88,North,350,1.0,16.0,88,0.00,,,0.00,WUHU216DAVISVP2,2013-05-18 15:57:00,
2013-05-18 11:02:00,68.5,64.5,29.88,NNW,340,9.0,16.0,87,0.00,,,0.00,WUHU216DAVISVP2,2013-05-18 16:02:00,
2013-05-18 11:07:00,68.8,64.8,29.88,NW,326,16.0,16.0,87,0.00,,,0.00,WUHU216DAVISVP2,2013-05-18 16:07:00,
2013-05-18 11:12:00,69.2,64.9,29.88,North,353,9.0,16.0,86,0.00,,,0.00,WUHU216DAVISVP2,2013-05-18 16:12:00,
2013-05-18 11:17:00,69.4,64.8,29.87,NNW,333,8.0,16.0,85,0.00,,,0.00,WUHU216DAVISVP2,2013-05-18 16:17:00,
2013-05-18 11:22:00,69.9,65.2,29.87,NNW,332,8.0,17.0,85,0.00,,,0.00,WUHU216DAVISVP2,2013-05-18 16:22:00,
2013-05-18 11:27:00,70.1,65.1,29.87,NW,308,9.0,17.0,84,0.00,,,0.00,WUHU216DAVISVP2,2013-05-18 16:27:00,
2013-05-18 11:32:00,70.3,65.0,29.88,North,1,9.0,17.0,83,0.00,,,0.00,WUHU216DAVISVP2,2013-05-18 16:32:00,
2013-05-18 11:37:00,70.6,65.5,29.88,North,349,8.0,17.0,84,0.00,,,0.00,WUHU216DAVISVP2,2013-05-18 16:37:00,
2013-05-18 11:42:00,70.9,65.5,29.88,NW,326,8.0,16.0,83,0.00,,,0.00,WUHU216DAVISVP2,2013-05-18 16:42:00,
2013-05-18 11:47:00,71.2,65.5,29.88,NNW,347,3.0,16.0,82,0.00,,,0.00,WUHU216DAVISVP2,2013-05-18 16:47:00,
2013-05-18 11:52:00,71.5,65.4,29.88,North,353,5.0,15.0,81,0.00,,,0.00,WUHU216DAVISVP2,2013-05-18 16:52:00,
2013-05-18 11:57:00,72.1,66.0,29.88,NNW,329,7.0,15.0,81,0.00,,,0.00,WUHU216DAVISVP2,2013-05-18 16:57:00,
2013-05-18 12:02:00,72.8,66.3,29.88,NNW,343,4.0,16.0,80,0.00,,,0.00,WUHU216DAVISVP2,2013-05-18 17:02:00,
2013-05-18 12:07:00,73.0,65.9,29.88,NW,320,3.0,16.0,78,0.00,,,0.00,WUHU216DAVISVP2,2013-05-18 17:07:00,
2013-05-18 12:12:00,72.9,65.7,29.87,North,356,12.0,16.0,78,0.00,,,0.00,WUHU216DAVISVP2,2013-05-18 17:12:00,
2013-05-18 12:17:00,72.9,65.8,29.87,NNE,25,7.0,16.0,78,0.00,,,0.00,WUHU216DAVISVP2,2013-05-18 17:17:00,
2013-05-18 12:22:00,73.0,65.5,29.86,NNW,338,9.0,14.0,77,0.00,,,0.00,WUHU216DAVISVP2,2013-05-18 17:22:00,
2013-05-18 12:27:00,73.3,65.8,29.86,NW,318,11.0,14.0,77,0.00,,,0.00,WUHU216DAVISVP2,2013-05-18 17:27:00,
2013-05-18 12:32:00,73.2,66.0,29.86,North,355,7.0,14.0,78,0.00,,,0.00,WUHU216DAVISVP2,2013-05-18 17:32:00,
2013-05-18 12:37:00,73.4,66.3,29.85,North,349,8.0,14.0,78,0.00,,,0.00,WUHU216DAVISVP2,2013-05-18 17:37:00,
2013-05-18 12:42:00,73.6,66.1,29.85,NW,326,8.0,14.0,77,0.00,,,0.00,WUHU216DAVISVP2,2013-05-18 17:42:00,
2013-05-18 12:47:00,73.7,66.2,29.85,NW,312,7.0,15.0,77,0.00,,,0.00,WUHU216DAVISVP2,2013-05-18 17:47:00,
2013-05-18 12:52:00,74.0,66.5,29.84,NNW,344,9.0,15.0,77,0.00,,,0.00,WUHU216DAVISVP2,2013-05-18 17:52:00,
2013-05-18 12:57:00,73.9,66.0,29.84,NW,316,13.0,15.0,76,0.00,,,0.00,WUHU216DAVISVP2,2013-05-18 17:57:00,
2013-05-18 13:02:00,73.5,65.6,29.84,NNW,337,0.0,16.0,76,0.00,,,0.00,WUHU216DAVISVP2,2013-05-18 18:02:00,
2013-05-18 13:07:00,73.7,66.2,29.83,NW,324,8.0,16.0,77,0.00,,,0.00,WUHU216DAVISVP2,2013-05-18 18:07:00,
2013-05-18 13:12:00,74.3,67.1,29.83,NNW,331,3.0,16.0,78,0.00,,,0.00,WUHU216DAVISVP2,2013-05-18 18:12:00,
2013-05-18 13:17:00,74.5,66.2,29.83,NNW,345,7.0,16.0,75,0.00,,,0.00,WUHU216DAVISVP2,2013-05-18 18:17:00,
2013-05-18 13:22:00,74.5,66.2,29.83,NNE,20,9.0,17.0,75,0.00,,,0.00,WUHU216DAVISVP2,2013-05-18 18:22:00,
2013-05-18 13:27:00,74.8,66.8,29.83,NW,308,7.0,17.0,76,0.00,,,0.00,WUHU216DAVISVP2,2013-05-18 18:27:00,
2013-05-18 13:32:00,75.0,67.1,29.83,WNW,299,8.0,17.0,76,0.00,,,0.00,WUHU216DAVISVP2,2013-05-18 18:32:00,
2013-05-18 13:37:00,75.1,66.8,29.82,NW,320,9.0,17.0,75,0.00,,,0.00,WUHU216DAVISVP2,2013-05-18 18:37:00,
2013-05-18 13:42:00,75.2,66.6,29.82,WNW,294,9.0,16.0,74,0.00,,,0.00,WUHU216DAVISVP2,2013-05-18 18:42:00,
2013-05-18 13:47:00,75.0,66.7,29.82,North,356,7.0,16.0,75,0.00,,,0.00,WUHU216DAVISVP2,2013-05-18 18:47:00,
2013-05-18 13:52:00,75.3,67.0,29.82,NW,324,8.0,16.0,75,0.00,,,0.00,WUHU216DAVISVP2,2013-05-18 18:52:00,
2013-05-18 13:57:00,75.8,66.7,29.82,NNW,333,7.0,16.0,73,0.00,,,0.00,WUHU216DAVISVP2,2013-05-18 18:57:00,
2013-05-18 14:02:00,75.8,67.5,29.82,North,357,5.0,16.0,75,0.00,,,0.00,WUHU216DAVISVP2,2013-05-18 19:02:00,
2013-05-18 14:07:00,76.4,68.0,29.82,North,349,8.0,16.0,75,0.00,,,0.00,WUHU216DAVISVP2,2013-05-18 19:07:00,
2013-05-18 14:12:00,76.1,67.4,29.82,NW,321,8.0,15.0,74,0.00,,,0.00,WUHU216DAVISVP2,2013-05-18 19:12:00,
2013-05-18 14:17:00,75.7,67.4,29.82,NNW,337,6.0,15.0,75,0.00,,,0.00,WUHU216DAVISVP2,2013-05-18 19:17:00,
2013-05-18 14:22:00,75.9,67.5,29.82,NNW,341,8.0,15.0,75,0.00,,,0.00,WUHU216DAVISVP2,2013-05-18 19:22:00,
2013-05-18 14:27:00,75.8,66.7,29.82,NNW,346,6.0,13.0,73,0.00,,,0.00,WUHU216DAVISVP2,2013-05-18 19:27:00,
2013-05-18 14:32:00,75.7,67.0,29.82,NW,304,6.0,13.0,74,0.00,,,0.00,WUHU216DAVISVP2,2013-05-18 19:32:00,
2013-05-18 14:37:00,75.8,67.1,29.82,NNW,343,8.0,14.0,74,0.00,,,0.00,WUHU216DAVISVP2,2013-05-18 19:37:00,
2013-05-18 14:42:00,75.7,67.8,29.82,NW,316,6.0,14.0,76,0.00,,,0.00,WUHU216DAVISVP2,2013-05-18 19:42:00,
2013-05-18 14:47:00,76.0,67.3,29.82,NNW,333,4.0,14.0,74,0.00,,,0.00,WUHU216DAVISVP2,2013-05-18 19:47:00,
2013-05-18 14:52:00,76.3,68.3,29.82,NNW,329,4.0,14.0,76,0.00,,,0.00,WUHU216DAVISVP2,2013-05-18 19:52:00,
2013-05-18 14:57:00,76.8,68.8,29.82,NW,326,7.0,12.0,76,0.00,,,0.00,WUHU216DAVISVP2,2013-05-18 19:57:00,
2013-05-18 15:02:00,77.3,68.5,29.82,NNW,328,9.0,12.0,74,0.00,,,0.00,WUHU216DAVISVP2,2013-05-18 20:02:00,
2013-05-18 15:07:00,77.6,68.8,29.82,North,2,9.0,13.0,74,0.00,,,0.00,WUHU216DAVISVP2,2013-05-18 20:07:00,
2013-05-18 15:12:00,77.8,68.2,29.81,North,7,2.0,14.0,72,0.00,,,0.00,WUHU216DAVISVP2,2013-05-18 20:12:00,
2013-05-18 15:17:00,77.7,68.9,29.81,NW,323,7.0,14.0,74,0.00,,,0.00,WUHU216DAVISVP2,2013-05-18 20:17:00,
2013-05-18 15:22:00,78.0,68.8,29.81,NNW,342,8.0,14.0,73,0.00,,,0.00,WUHU216DAVISVP2,2013-05-18 20:22:00,
2013-05-18 15:27:00,78.3,69.9,29.81,NNW,345,4.0,14.0,75,0.00,,,0.00,WUHU216DAVISVP2,2013-05-18 20:27:00,
2013-05-18 15:32:00,78.7,69.9,29.81,NNW,329,11.0,15.0,74,0.00,,,0.00,WUHU216DAVISVP2,2013-05-18 20:32:00,
2013-05-18 15:37:00,79.0,69.4,29.81,NW,304,10.0,16.0,72,0.00,,,0.00,WUHU216DAVISVP2,2013-05-18 20:37:00,
2013-05-18 15:42:00,79.0,69.5,29.81,North,8,11.0,16.0,72,0.00,,,0.00,WUHU216DAVISVP2,2013-05-18 20:42:00,
2013-05-18 15:47:00,78.6,69.4,29.81,NNW,327,7.0,16.0,73,0.00,,,0.00,WUHU216DAVISVP2,2013-05-18 20:47:00,
2013-05-18 15:53:00,78.3,69.1,29.81,NW,323,7.0,15.0,73,0.00,,,0.00,WUHU216DAVISVP2,2013-05-18 20:53:00,
2013-05-18 15:58:00,78.2,69.4,29.81,North,354,9.0,15.0,74,0.00,,,0.00,WUHU216DAVISVP2,2013-05-18 20:58:00,
2013-05-18 16:03:00,78.4,70.0,29.80,NW,318,5.0,15.0,75,0.00,,,0.00,WUHU216DAVISVP2,2013-05-18 21:03:00,
2013-05-18 16:08:00,79.1,70.3,29.80,NNW,339,7.0,16.0,74,0.00,,,0.00,WUHU216DAVISVP2,2013-05-18 21:08:00,
2013-05-18 16:13:00,79.4,70.2,29.80,NW,317,10.0,16.0,73,0.00,,,0.00,WUHU216DAVISVP2,2013-05-18 21:13:00,
2013-05-18 16:18:00,79.4,70.6,29.80,NNW,339,12.0,16.0,74,0.00,,,0.00,WUHU216DAVISVP2,2013-05-18 21:18:00,
2013-05-18 16:23:00,79.3,70.5,29.79,NW,320,6.0,16.0,74,0.00,,,0.00,WUHU216DAVISVP2,2013-05-18 21:23:00,
2013-05-18 16:28:00,79.4,71.0,29.79,NW,319,8.0,17.0,75,0.00,,,0.00,WUHU216DAVISVP2,2013-05-18 21:28:00,
2013-05-18 16:33:00,79.8,70.9,29.80,NNW,347,5.0,17.0,74,0.00,,,0.00,WUHU216DAVISVP2,2013-05-18 21:33:00,
2013-05-18 16:38:00,79.8,71.3,29.79,NNW,339,4.0,17.0,75,0.00,,,0.00,WUHU216DAVISVP2,2013-05-18 21:38:00,
2013-05-18 16:43:00,79.9,71.5,29.79,NW,321,7.0,16.0,75,0.00,,,0.00,WUHU216DAVISVP2,2013-05-18 21:43:00,
2013-05-18 16:48:00,80.1,71.6,29.80,NW,324,10.0,18.0,75,0.00,,,0.00,WUHU216DAVISVP2,2013-05-18 21:48:00,
2013-05-18 16:53:00,79.9,71.5,29.79,NW,326,8.0,18.0,75,0.00,,,0.00,WUHU216DAVISVP2,2013-05-18 21:53:00,
2013-05-18 16:58:00,79.9,71.4,29.79,NNW,333,6.0,20.0,75,0.00,,,0.00,WUHU216DAVISVP2,2013-05-18 21:58:00,
2013-05-18 17:03:00,80.3,72.2,29.79,NW,317,9.0,20.0,76,0.00,,,0.00,WUHU216DAVISVP2,2013-05-18 22:03:00,
2013-05-18 17:08:00,80.7,72.2,29.79,NW,319,12.0,20.0,75,0.00,,,0.00,WUHU216DAVISVP2,2013-05-18 22:08:00,
2013-05-18 17:13:00,81.0,72.9,29.79,NW,325,9.0,19.0,76,0.00,,,0.00,WUHU216DAVISVP2,2013-05-18 22:13:00,
2013-05-18 17:18:00,81.2,72.7,29.79,NW,310,12.0,19.0,75,0.00,,,0.00,WUHU216DAVISVP2,2013-05-18 22:18:00,
2013-05-18 17:23:00,81.0,72.6,29.79,NNW,339,12.0,18.0,75,0.00,,,0.00,WUHU216DAVISVP2,2013-05-18 22:23:00,
2013-05-18 17:28:00,81.2,73.1,29.79,NW,316,12.0,18.0,76,0.00,,,0.00,WUHU216DAVISVP2,2013-05-18 22:28:00,
2013-05-18 17:33:00,81.7,73.1,29.78,NNW,328,11.0,18.0,75,0.00,,,0.00,WUHU216DAVISVP2,2013-05-18 22:33:00,
2013-05-18 17:38:00,81.6,73.1,29.79,NNW,343,13.0,17.0,75,0.00,,,0.00,WUHU216DAVISVP2,2013-05-18 22:38:00,
2013-05-18 17:43:00,81.2,73.1,29.79,NNW,329,11.0,17.0,76,0.00,,,0.00,WUHU216DAVISVP2,2013-05-18 22:43:00,
2013-05-18 17:48:00,80.7,73.0,29.80,North,355,5.0,18.0,77,0.00,,,0.00,WUHU216DAVISVP2,2013-05-18 22:48:00,
2013-05-18 17:53:00,80.8,73.4,29.79,North,349,11.0,18.0,78,0.00,,,0.00,WUHU216DAVISVP2,2013-05-18 22:53:00,
2013-05-18 17:58:00,81.1,73.8,29.79,NNW,339,10.0,18.0,78,0.00,,,0.00,WUHU216DAVISVP2,2013-05-18 22:58:00,
2013-05-18 18:03:00,80.9,73.5,29.79,NNW,332,11.0,18.0,78,0.00,,,0.00,WUHU216DAVISVP2,2013-05-18 23:03:00,
2013-05-18 18:08:00,80.5,73.2,29.79,North,358,6.0,17.0,78,0.00,,,0.00,WUHU216DAVISVP2,2013-05-18 23:08:00,
2013-05-18 18:13:00,80.3,73.3,29.79,NE,54,9.0,17.0,79,0.00,,,0.00,WUHU216DAVISVP2,2013-05-18 23:13:00,
2013-05-18 18:18:00,80.1,73.1,29.79,NNW,339,8.0,17.0,79,0.00,,,0.00,WUHU216DAVISVP2,2013-05-18 23:18:00,
2013-05-18 18:23:00,79.8,73.2,29.79,NNW,343,2.0,17.0,80,0.00,,,0.00,WUHU216DAVISVP2,2013-05-18 23:23:00,
2013-05-18 18:28:00,79.6,73.0,29.79,NNW,336,9.0,17.0,80,0.00,,,0.00,WUHU216DAVISVP2,2013-05-18 23:28:00,
2013-05-18 18:33:00,79.4,72.8,29.78,North,359,13.0,15.0,80,0.00,,,0.00,WUHU216DAVISVP2,2013-05-18 23:33:00,
2013-05-18 18:38:00,79.2,72.6,29.78,North,351,6.0,15.0,80,0.00,,,0.00,WUHU216DAVISVP2,2013-05-18 23:38:00,
2013-05-18 18:43:00,79.2,72.6,29.78,NNW,343,6.0,15.0,80,0.00,,,0.00,WUHU216DAVISVP2,2013-05-18 23:43:00,
2013-05-18 18:48:00,78.8,71.5,29.79,NNW,339,6.0,15.0,78,0.00,,,0.00,WUHU216DAVISVP2,2013-05-18 23:48:00,
2013-05-18 18:53:00,78.5,71.2,29.78,NNW,332,8.0,18.0,78,0.00,,,0.00,WUHU216DAVISVP2,2013-05-18 23:53:00,
2013-05-18 18:58:00,78.3,71.0,29.78,NW,316,7.0,18.0,78,0.00,,,0.00,WUHU216DAVISVP2,2013-05-18 23:58:00,
2013-05-18 19:03:00,78.1,70.8,29.78,NNW,337,8.0,18.0,78,0.00,,,0.00,WUHU216DAVISVP2,2013-05-19 00:03:00,
2013-05-18 19:08:00,77.9,70.6,29.78,North,351,9.0,18.0,78,0.00,,,0.00,WUHU216DAVISVP2,2013-05-19 00:08:00,
2013-05-18 19:13:00,77.8,70.5,29.79,NNW,338,2.0,14.0,78,0.00,,,0.00,WUHU216DAVISVP2,2013-05-19 00:13:00,
2013-05-18 19:18:00,77.6,70.3,29.79,North,349,5.0,14.0,78,0.00,,,0.00,WUHU216DAVISVP2,2013-05-19 00:18:00,
2013-05-18 19:23:00,77.5,70.6,29.79,NNW,337,6.0,14.0,79,0.00,,,0.00,WUHU216DAVISVP2,2013-05-19 00:23:00,
2013-05-18 19:28:00,77.3,70.3,29.78,NNW,331,7.0,11.0,79,0.00,,,0.00,WUHU216DAVISVP2,2013-05-19 00:28:00,
2013-05-18 19:33:00,77.1,70.6,29.78,NW,306,8.0,12.0,80,0.00,,,0.00,WUHU216DAVISVP2,2013-05-19 00:33:00,
2013-05-18 19:38:00,76.9,70.3,29.78,North,349,8.0,12.0,80,0.00,,,0.00,WUHU216DAVISVP2,2013-05-19 00:38:00,
2013-05-18 19:43:00,76.7,70.6,29.78,NNW,331,8.0,14.0,81,0.00,,,0.00,WUHU216DAVISVP2,2013-05-19 00:43:00,
2013-05-18 19:48:00,76.6,70.4,29.78,NNW,327,6.0,14.0,81,0.00,,,0.00,WUHU216DAVISVP2,2013-05-19 00:48:00,
2013-05-18 19:53:00,76.4,70.2,29.78,NNW,342,8.0,14.0,81,0.00,,,0.00,WUHU216DAVISVP2,2013-05-19 00:53:00,
2013-05-18 19:58:00,76.1,70.3,29.78,NNW,348,6.0,14.0,82,0.00,,,0.00,WUHU216DAVISVP2,2013-05-19 00:58:00,
2013-05-18 20:03:00,75.9,70.1,29.78,NW,326,7.0,13.0,82,0.00,,,0.00,WUHU216DAVISVP2,2013-05-19 01:03:00,
2013-05-18 20:08:00,75.7,69.9,29.78,NNW,329,7.0,15.0,82,0.00,,,0.00,WUHU216DAVISVP2,2013-05-19 01:08:00,
2013-05-18 20:13:00,75.4,70.0,29.78,North,356,5.0,15.0,83,0.00,,,0.00,WUHU216DAVISVP2,2013-05-19 01:13:00,
2013-05-18 20:18:00,75.2,69.8,29.78,NW,320,10.0,15.0,83,0.00,,,0.00,WUHU216DAVISVP2,2013-05-19 01:18:00,
2013-05-18 20:23:00,75.0,69.9,29.78,NNW,331,7.0,15.0,84,0.00,,,0.00,WUHU216DAVISVP2,2013-05-19 01:23:00,
2013-05-18 20:28:00,74.7,69.6,29.77,NNW,344,7.0,14.0,84,0.00,,,0.00,WUHU216DAVISVP2,2013-05-19 01:28:00,
2013-05-18 20:33:00,74.5,69.7,29.77,North,352,8.0,14.0,85,0.00,,,0.00,WUHU216DAVISVP2,2013-05-19 01:33:00,
2013-05-18 20:38:00,74.4,69.6,29.77,NNW,329,7.0,14.0,85,0.00,,,0.00,WUHU216DAVISVP2,2013-05-19 01:38:00,
2013-05-18 20:43:00,74.2,69.4,29.76,NNW,332,6.0,14.0,85,0.00,,,0.00,WUHU216DAVISVP2,2013-05-19 01:43:00,
2013-05-18 20:48:00,73.9,69.5,29.76,NNW,336,6.0,13.0,86,0.00,,,0.00,WUHU216DAVISVP2,2013-05-19 01:48:00,
2013-05-18 20:53:00,73.7,69.3,29.76,NNW,336,12.0,15.0,86,0.00,,,0.00,WUHU216DAVISVP2,2013-05-19 01:53:00,
2013-05-18 20:58:00,73.6,69.5,29.76,NNW,329,7.0,15.0,87,0.00,,,0.00,WUHU216DAVISVP2,2013-05-19 01:58:00,
2013-05-18 21:03:00,73.4,69.3,29.76,NNW,333,5.0,15.0,87,0.00,,,0.00,WUHU216DAVISVP2,2013-05-19 02:03:00,
2013-05-18 21:08:00,73.3,69.2,29.77,NNW,345,8.0,15.0,87,0.00,,,0.00,WUHU216DAVISVP2,2013-05-19 02:08:00,
2013-05-18 21:13:00,73.2,69.1,29.77,NNW,345,4.0,13.0,87,0.00,,,0.00,WUHU216DAVISVP2,2013-05-19 02:13:00,
2013-05-18 21:18:00,72.9,69.2,29.77,North,350,6.0,17.0,88,0.00,,,0.00,WUHU216DAVISVP2,2013-05-19 02:18:00,
2013-05-18 21:23:00,72.8,69.1,29.77,NNW,335,11.0,17.0,88,0.00,,,0.00,WUHU216DAVISVP2,2013-05-19 02:23:00,
2013-05-18 21:28:00,72.7,68.9,29.77,NW,304,5.0,17.0,88,0.00,,,0.00,WUHU216DAVISVP2,2013-05-19 02:28:00,
2013-05-18 21:33:00,72.5,69.0,29.77,NNW,341,7.0,17.0,89,0.00,,,0.00,WUHU216DAVISVP2,2013-05-19 02:33:00,
2013-05-18 21:38:00,72.3,68.9,29.77,NNW,343,9.0,15.0,89,0.00,,,0.00,WUHU216DAVISVP2,2013-05-19 02:38:00,
2013-05-18 21:43:00,72.3,68.9,29.77,North,351,12.0,15.0,89,0.00,,,0.00,WUHU216DAVISVP2,2013-05-19 02:43:00,
2013-05-18 21:48:00,72.2,68.8,29.77,NNW,331,12.0,15.0,89,0.00,,,0.00,WUHU216DAVISVP2,2013-05-19 02:48:00,
2013-05-18 21:53:00,72.1,69.0,29.76,NNW,348,9.0,16.0,90,0.00,,,0.00,WUHU216DAVISVP2,2013-05-19 02:53:00,
2013-05-18 21:58:00,72.0,68.9,29.76,NNW,331,10.0,16.0,90,0.00,,,0.00,WUHU216DAVISVP2,2013-05-19 02:58:00,
2013-05-18 22:03:00,72.0,68.9,29.76,NNW,347,12.0,16.0,90,0.00,,,0.00,WUHU216DAVISVP2,2013-05-19 03:03:00,
2013-05-18 22:08:00,71.9,68.8,29.77,North,351,8.0,17.0,90,0.00,,,0.00,WUHU216DAVISVP2,2013-05-19 03:08:00,
2013-05-18 22:13:00,71.9,68.8,29.76,NNW,343,8.0,17.0,90,0.00,,,0.00,WUHU216DAVISVP2,2013-05-19 03:13:00,
2013-05-18 22:18:00,71.9,68.7,29.77,NNW,333,11.0,17.0,90,0.00,,,0.00,WUHU216DAVISVP2,2013-05-19 03:18:00,
2013-05-18 22:23:00,71.7,68.6,29.77,NNW,346,10.0,17.0,90,0.00,,,0.00,WUHU216DAVISVP2,2013-05-19 03:23:00,
2013-05-18 22:28:00,71.6,68.8,29.77,NNW,333,14.0,18.0,91,0.00,,,0.00,WUHU216DAVISVP2,2013-05-19 03:28:00,
2013-05-18 22:33:00,71.6,68.5,29.78,NNW,342,6.0,18.0,90,0.00,,,0.00,WUHU216DAVISVP2,2013-05-19 03:33:00,
2013-05-18 22:38:00,71.5,68.4,29.78,NNW,348,5.0,18.0,90,0.00,,,0.00,WUHU216DAVISVP2,2013-05-19 03:38:00,
2013-05-18 22:43:00,71.4,68.6,29.78,NNE,25,7.0,18.0,91,0.00,,,0.00,WUHU216DAVISVP2,2013-05-19 03:43:00,
2013-05-18 22:48:00,71.2,68.5,29.78,NNW,339,6.0,16.0,91,0.00,,,0.00,WUHU216DAVISVP2,2013-05-19 03:48:00,
2013-05-18 22:53:00,71.2,68.4,29.78,North,360,6.0,15.0,91,0.00,,,0.00,WUHU216DAVISVP2,2013-05-19 03:53:00,
2013-05-18 22:58:00,71.0,68.2,29.78,NW,324,3.0,14.0,91,0.00,,,0.00,WUHU216DAVISVP2,2013-05-19 03:58:00,
2013-05-18 23:01:00,71.0,68.2,29.78,NNW,337,7.0,13.0,91,0.00,,,0.00,WUHU216DAVISVP2,2013-05-19 04:01:00,
2013-05-18 23:06:00,71.0,68.5,29.78,NNW,338,8.0,13.0,92,0.00,,,0.00,WUHU216DAVISVP2,2013-05-19 04:06:00,
2013-05-18 23:11:00,70.9,68.4,29.78,NNW,341,3.0,13.0,92,0.00,,,0.00,WUHU216DAVISVP2,2013-05-19 04:11:00,
2013-05-18 23:16:00,70.7,68.3,29.78,North,349,6.0,13.0,92,0.00,,,0.00,WUHU216DAVISVP2,2013-05-19 04:16:00,
2013-05-18 23:21:00,70.6,68.2,29.78,NNW,340,8.0,13.0,92,0.00,,,0.00,WUHU216DAVISVP2,2013-05-19 04:21:00,
2013-05-18 23:26:00,70.6,68.2,29.78,NNW,341,5.0,13.0,92,0.00,,,0.00,WUHU216DAVISVP2,2013-05-19 04:26:00,
2013-05-18 23:31:00,70.5,68.0,29.78,NNW,340,7.0,13.0,92,0.00,,,0.00,WUHU216DAVISVP2,2013-05-19 04:31:00,
2013-05-18 23:36:00,70.5,68.0,29.78,North,6,8.0,13.0,92,0.00,,,0.00,WUHU216DAVISVP2,2013-05-19 04:36:00,
2013-05-18 23:41:00,70.4,67.9,29.78,NNW,328,11.0,13.0,92,0.00,,,0.00,WUHU216DAVISVP2,2013-05-19 04:41:00,
2013-05-18 23:46:00,70.4,67.9,29.78,NW,324,7.0,13.0,92,0.00,,,0.00,WUHU216DAVISVP2,2013-05-19 04:46:00,
2013-05-18 23:51:00,70.3,67.8,29.78,NNW,339,6.0,13.0,92,0.00,,,0.00,WUHU216DAVISVP2,2013-05-19 04:51:00,
2013-05-18 23:56:00,70.2,67.7,29.78,NNW,339,6.0,13.0,92,0.00,,,0.00,WUHU216DAVISVP2,2013-05-19 04:56:00,